Total_Precipitation_Accumulation
2.40 1.69 1.17 0.47 0.30 0.26 0.38 0.48 0.43 0.25 0.36 0.76 0.71 0.40 0.21 0.14 0.15 0.10 0.06 0.24 0.62 1.07 1.00 0.86 0.87 1.11 1.43 1.92 3.29 3.19 3.74 3.73 3.43 3.46 3.70 2.70 2.18 3.00 2.47 2.17 2.59 2.26 2.20 1.94
2.31 1.18 0.34 0.37 0.35 0.39 0.55 0.68 0.53 0.33 0.24 0.50 0.55 0.27 0.37 0.31 0.16 0.21 0.22 0.42 0.75 0.84 0.68 0.55 0.66 1.07 1.29 1.48 2.74 3.57 3.56 3.66 3.32 3.18 3.86 3.41 2.88 3.01 3.59 3.06 3.12 3.19 2.56 2.74
1.78 0.63 0.36 0.55 0.63 0.54 0.51 0.61 0.46 0.48 0.36 0.46 0.51 0.40 0.16 0.12 0.11 0.07 0.12 0.30 0.57 0.77 0.40 0.44 0.46 0.65 1.64 1.71 1.83 2.96 3.82 4.02 3.66 3.80 4.47 4.88 4.35 4.04 3.85 3.35 3.08 3.05 2.86 3.15
1.36 0.63 0.59 0.78 0.63 0.51 0.59 0.30 0.30 0.38 0.81 0.91 0.71 1.10 0.08 0.06 0.13 0.09 0.19 0.44 0.72 0.53 0.62 0.58 0.41 0.43 0.69 1.27 1.64 2.48 3.54 4.73 4.56 4.78 5.18 4.65 4.02 3.77 3.97 3.60 3.32 3.06 2.59 2.88
1.47 0.76 0.64 1.02 0.74 0.36 0.45 0.21 0.19 0.47 0.82 1.10 0.70 1.49 0.42 0.17 0.42 0.45 0.94 0.81 1.55 1.28 1.41 1.17 0.48 0.53 0.75 0.91 1.22 2.03 3.20 4.21 5.77 5.57 5.12 4.84 4.47 3.89 4.07 3.57 3.13 2.47 2.31 2.07
1.00 0.70 0.78 0.80 0.80 0.52 0.43 0.60 0.56 0.62 1.29 2.27 0.62 0.87 0.50 0.21 0.34 0.21 0.52 0.69 1.57 2.08 1.81 1.64 1.64 1.06 0.99 1.22 1.23 1.60 3.14 3.44 4.53 5.76 5.65 4.12 4.35 4.77 5.03 4.43 3.51 3.04 2.42 2.37
1.79 1.18 0.75 0.78 1.41 1.18 1.37 2.00 2.57 2.08 2.41 1.54 0.22 0.51 0.70 0.13 0.08 0.19 0.62 0.88 1.68 2.36 2.10 2.15 2.24 2.10 2.09 2.06 1.76 1.63 2.18 3.60 2.94 4.77 4.72 4.27 3.01 3.48 4.31 5.16 4.00 3.34 2.99 2.38
1.32 1.35 1.01 0.77 1.51 2.04 1.35 2.04 2.54 1.67 0.74 0.38 0.13 0.53 0.44 0.06 0.02 0.06 0.56 0.74 1.39 1.69 2.11 1.55 1.90 2.10 1.86 1.73 1.69 0.91 1.56 2.98 3.07 2.99 4.08 3.99 3.64 2.50 3.28 3.97 3.76 3.30 2.81 2.60
0.96 0.75 0.53 0.54 0.57 1.40 1.83 1.87 1.10 1.71 0.81 0.71 0.32 0.21 0.12 0.01 0.00 0.00 0.16 0.66 1.35 1.28 1.28 1.45 1.82 1.65 1.31 0.73 1.52 1.43 1.23 1.58 2.68 2.75 3.42 4.08 4.14 2.92 2.75 3.27 3.51 2.43 2.20 2.36
0.90 1.27 0.54 0.66 0.97 1.25 1.63 1.36 1.63 2.74 1.95 0.80 0.23 0.35 0.41 0.16 0.08 0.03 0.03 0.19 0.33 0.61 0.75 0.87 0.98 1.29 1.09 0.98 1.57 2.04 1.28 1.39 1.67 2.76 2.77 3.85 4.06 3.75 3.20 3.16 3.17 2.87 2.00 1.72
1.12 1.58 0.90 1.04 1.37 1.50 1.69 2.88 1.86 1.76 0.99 1.30 0.68 0.68 0.69 0.46 0.38 0.36 0.20 0.17 0.19 0.24 0.30 0.23 0.16 0.16 0.44 0.77 1.20 1.59 1.66 1.36 1.55 1.93 2.90 3.70 5.12 3.67 4.55 4.05 3.05 2.83 2.27 1.63
1.00 1.89 1.27 0.61 0.75 0.79 1.14 1.66 2.04 1.76 1.16 1.06 1.37 1.17 0.44 0.64 0.71 0.88 0.70 0.48 0.33 0.31 0.15 0.18 0.10 0.05 0.20 0.45 0.71 1.47 2.32 1.54 2.02 2.15 2.92 3.12 3.87 4.67 4.50 5.42 4.43 3.28 2.79 1.85
1.41 2.09 1.55 1.12 1.48 1.01 1.50 1.30 1.78 2.02 2.05 1.65 2.01 1.70 0.67 0.67 0.73 1.03 0.95 0.68 0.64 0.43 0.28 0.17 0.07 0.06 0.07 0.18 0.40 0.81 1.51 1.37 1.63 1.67 2.15 2.71 2.73 3.56 4.23 5.39 5.98 4.92 4.09 3.02
1.29 1.44 1.35 1.33 1.47 1.65 1.33 0.96 1.45 2.65 3.16 1.47 1.78 1.60 1.25 0.96 0.85 0.98 0.84 0.86 0.80 0.71 0.63 0.50 0.28 0.19 0.29 0.44 0.41 0.31 0.68 1.02 1.12 1.17 1.54 2.22 2.67 2.50 3.25 3.65 4.35 4.09 4.21 4.08
1.37 1.58 1.09 0.54 0.36 1.11 1.29 1.30 1.42 2.37 1.92 2.17 1.92 1.50 1.63 1.65 1.87 1.70 1.50 1.26 0.89 0.79 0.86 0.55 0.41 0.27 0.32 0.57 0.71 0.55 0.48 0.49 0.93 0.98 0.99 1.17 2.11 1.87 2.02 2.92 2.96 3.64 3.25 3.59
0.90 1.52 1.33 0.87 0.52 0.73 1.16 1.08 1.36 1.52 1.55 1.77 1.23 1.07 1.20 1.53 1.39 1.32 1.27 1.20 1.11 1.32 1.19 0.72 0.49 0.27 0.26 0.39 0.56 0.69 0.67 0.47 0.49 0.66 0.55 0.92 1.53 1.60 1.61 1.88 2.46 2.78 3.33 3.65
0.77 1.11 1.34 0.85 0.56 0.87 1.66 1.77 1.42 1.25 1.42 1.71 1.90 1.78 1.50 1.47 1.37 1.70 1.66 1.72 1.76 1.91 1.61 1.14 0.67 0.53 0.39 0.27 0.36 0.77 0.70 0.55 0.51 0.67 0.69 0.66 1.00 1.11 1.20 1.55 1.69 2.39 2.96 2.93
0.38 0.71 1.22 0.93 0.81 1.44 1.41 1.05 1.04 1.26 1.32 1.30 1.18 1.30 1.52 1.50 1.17 1.47 1.60 2.18 2.07 2.26 1.80 1.34 1.00 0.78 0.42 0.35 0.37 0.79 0.92 0.61 0.85 0.73 0.93 1.05 0.99 1.02 1.07 1.50 1.58 1.49 2.03 2.52
0.25 0.47 0.95 0.72 0.53 0.48 0.24 0.16 0.45 0.91 1.17 0.78 0.78 0.72 0.80 0.61 0.62 0.89 0.64 1.18 1.89 2.38 2.16 1.87 1.85 1.16 0.74 0.64 0.64 0.78 0.91 0.74 0.59 0.86 1.07 0.91 0.96 0.97 1.05 1.70 1.97 1.90 2.28 2.72
0.09 0.29 0.95 0.62 0.62 0.27 0.19 0.03 0.08 0.28 0.95 0.47 0.72 0.78 0.78 0.66 0.85 0.99 1.05 1.43 1.69 1.95 2.33 2.70 1.96 1.13 0.87 0.79 0.90 0.96 0.88 0.77 0.76 0.89 0.94 1.06 1.21 1.37 1.34 1.78 2.09 1.74 1.62 1.78
0.47 0.57 0.72 0.47 0.68 0.16 0.03 0.00 0.07 0.30 0.53 0.39 0.70 0.89 0.89 1.14 1.48 1.50 1.52 1.46 1.60 1.84 2.34 2.56 1.79 1.25 1.04 1.32 1.45 1.58 1.44 1.33 1.31 1.32 1.67 1.50 1.65 1.80 1.58 1.47 1.76 1.72 1.51 1.34
0.50 0.49 0.46 0.41 0.63 0.24 0.01 0.01 0.14 0.26 0.10 0.26 0.44 0.70 0.97 0.78 0.62 0.65 0.88 1.08 1.50 1.89 2.66 3.15 2.42 2.05 2.31 2.50 1.95 2.01 2.30 2.35 1.86 1.44 1.32 1.39 1.40 1.29 1.29 1.30 1.34 1.44 1.56 1.43
0.66 0.52 0.41 0.23 0.16 0.04 0.01 0.01 0.01 0.02 0.10 0.10 0.39 0.42 0.69 0.63 0.47 0.39 0.55 0.72 1.02 1.58 2.46 3.37 3.39 2.98 2.21 2.20 2.09 2.19 2.23 2.16 2.02 1.82 1.35 1.22 1.27 1.28 1.18 1.37 1.55 1.59 1.54 1.56
0.21 0.14 0.16 0.13 0.05 0.04 0.16 0.18 0.08 0.04 0.05 0.06 0.21 0.30 0.24 0.39 0.31 0.22 0.23 0.43 0.76 1.12 2.13 3.06 2.81 2.48 2.05 2.04 2.45 2.17 2.28 1.93 1.89 2.09 2.08 1.54 1.42 1.78 1.63 1.62 1.71 1.68 1.41 1.25
0.23 0.15 0.11 0.07 0.03 0.03 0.03 0.05 0.07 0.09 0.08 0.10 0.10 0.14 0.23 0.25 0.17 0.22 0.23 0.31 0.59 0.94 1.64 2.56 2.84 2.80 2.33 2.34 2.78 2.57 2.40 2.21 2.01 1.88 2.23 2.04 1.67 1.60 1.63 1.61 1.65 1.62 1.48 1.08
0.21 0.20 0.18 0.10 0.02 0.13 0.08 0.03 0.02 0.06 0.10 0.15 0.24 0.20 0.16 0.25 0.29 0.25 0.21 0.22 0.45 0.81 1.34 1.94 2.58 2.69 2.62 2.65 2.71 2.56 2.64 2.63 1.93 1.67 1.55 1.90 1.66 1.37 1.25 1.28 1.62 1.75 1.77 1.65